Harwood, ND

7:59 PM CST on February 25, 2017 (GMT -0600)
Harwood Triangle | | Change Station
Active Advisory: Flood Warning

Elev 879 ft 46.98 °N, 96.88 °W | Updated 13 minutes ago

Overcast
Overcast
26.4 °F
Feels Like 26 °F
N
1.0
Wind Variable Wind from WNW
Gusts 3.0 mph

Today
High -- | Low -- °F
--% Chance of Precip.
Yesterday
High -- | Low -- °F
Precip. -- in
Pressure 29.78 in
Visibility 10.0 miles
Clouds Overcast 10000 ft
Windchill 26 °F
Dew Point 21 °F
Humidity 80%
Rainfall 0.00 in
Snow Depth Not available.
7:14 AM 6:07 PM
Waning Crescent, 0% visible
METAR KFAR 260153Z 29006KT 10SM OVC100 M03/M06 A2974 RMK AO2 SLP085 T10281061
Pressure 29.78 in
Visibility 10.0 miles
Clouds Overcast 10000 ft
Windchill 26 °F
Dew Point 21 °F
Humidity 80%
Rainfall 0.00 in
Snow Depth Not available.
7:14 AM 6:07 PM
Waning Crescent, 0% visible
METAR KFAR 260153Z 29006KT 10SM OVC100 M03/M06 A2974 RMK AO2 SLP085 T10281061

Get Your Daily Forecast Email!

Thanks for signing up!

Be on the lookout for a verification email in your inbox.

You'll start receiving the daily forecast at 8 AM.

×

10-Day Weather Forecast

Almanac

Astronomy

Feb. 25, 2017 Rise Set
Actual Time
Civil Twilight
Nautical Twilight
Astronomical Twilight
Moon
Length of Visible Light
Length of Day
Tomorrow will be .
, % of the Moon is Illuminated

Today's Extremes

State Highs State Lows

Community

WunderPhotos

Upload Photos

1,962,540 photos uploaded!

WunderBlog® & News

Nearby

Air Quality

  Air Quality AQ Index Pollutant
Not available.

Snow Depth

Station Depth Elevation

Earthquake Activity

City Distance Mag. Time & Date
Minimum magnitude displayed is 2.5.

Coastal Water Temperatures

Place Temperature

Stations

Nearby Weather Stations

Station Location Temp. Windchill Dew Point Humidity Wind Precip. Elev Updated Type
                   

Watches & Warnings

Flood Warning
Issued: 10:54 AM CST Feb. 25, 2017 – National Weather Service

The Flood Warning continues for...
* ... Fargo on the Red River.
* Until further notice, or until the warning is cancelled.
* At 9:15 am Saturday the stage was 22.1 feet.
* Minor flooding is occurring and minor flooding is forecast.
* Minor flood stage is 18.0 feet.
* Forecast... the river has crested and will continue to fall to a
stage of 21.7 feet by Sunday mid-morning.
* Impact statement(s) - at 22.0 feet, Fargo North Broadway bridge is
closed.


Daily 7am CDT/6am CST forecast stage in feet:

date sun Mon Tue Wed Thu Fri Sat
(month/day) 02/26 02/27 02/28 03/01 03/02 03/03 03/04

Red River
Fargo 21.7 20.7 19.7 18.9 18.4 18.2 18.1


Lat... Lon 4715 9673 4724 9683 4724 9694 4676 9689 4677 9671